Tracking 17857 objects as of 30-September-2016
HD Live streaming from Space Station
objects crossing your sky now

COSMOS 2251 DEB

Track COSMOS 2251 DEB now!
10-day predictions


NORAD ID: 33899
Int'l Code: 1993-036DC
Perigee: 693.8 km
Apogee: 800.9 km
Inclination: 74.1 °
Period: 99.6 minutes
Semi major axis: 7118 km
RCS: 0.032 m2 (small)
Launch date: June 16, 1993
Source: Commonwealth of Independent States (former USSR) (CIS)
Launch site: PLESETSK MISSILE AND SPACE COMPLEX (PKMTR)

Note: This is SATELLITE DEBRIS
Your satellite tracking list
Your tracking list is empty





NASA's NSSDC Master Catalog

Two Line Element Set (TLE):
1 33899U 93036DC  16272.96319973 +.00000760 +00000-0 +21544-3 0  9990
2 33899 074.0570 261.0721 0075215 100.2171 293.4541 14.45543124401464
Source of the keplerian elements: AFSPC

N2YO: 631